Wetterdaten: Dienstag, 03.04.2007
Datum Zeit Temp. A. Feuchte A. Luftdruck Regen Wind Richtung Richtung Sonnenschein UV Solar Windben
03.04.2007 00:00 8,3 C 57 % 1020,9 hPa 0,0 mm 0,0 km/h (0 Bft) N 0 0 min 0 UV-I 0 W/m 0,0 km/h (0 Bft)
03.04.2007 00:10 8,1 C 61 % 1020,8 hPa 0,0 mm 0,0 km/h (0 Bft) N 0 0 min 0 UV-I 0 W/m 0,0 km/h (0 Bft)
03.04.2007 00:20 7,7 C 64 % 1020,7 hPa 0,0 mm 0,0 km/h (0 Bft) N 0 0 min 0 UV-I 0 W/m 0,0 km/h (0 Bft)
03.04.2007 00:30 7,4 C 65 % 1020,8 hPa 0,0 mm 0,0 km/h (0 Bft) N 0 0 min 0 UV-I 0 W/m 0,0 km/h (0 Bft)
03.04.2007 00:40 7,3 C 64 % 1020,7 hPa 0,0 mm 0,0 km/h (0 Bft) N 0 0 min 0 UV-I 0 W/m 0,0 km/h (0 Bft)
03.04.2007 00:50 7,7 C 62 % 1020,6 hPa 0,0 mm 0,0 km/h (0 Bft) N-NW 337 0 min 0 UV-I 0 W/m 1,6 km/h (1 Bft)
03.04.2007 01:00 7,8 C 61 % 1020,3 hPa 0,0 mm 0,0 km/h (0 Bft) N 0 0 min 0 UV-I 0 W/m 0,0 km/h (0 Bft)
03.04.2007 01:10 7,7 C 63 % 1020,3 hPa 0,0 mm 0,0 km/h (0 Bft) N 0 0 min 0 UV-I 0 W/m 0,0 km/h (0 Bft)
03.04.2007 01:20 7,2 C 65 % 1020,2 hPa 0,0 mm 0,0 km/h (0 Bft) N 0 0 min 0 UV-I 0 W/m 0,0 km/h (0 Bft)
03.04.2007 01:30 6,9 C 65 % 1020,1 hPa 0,0 mm 0,0 km/h (0 Bft) N 0 0 min 0 UV-I 0 W/m 0,0 km/h (0 Bft)
03.04.2007 01:40 6,8 C 68 % 1020,1 hPa 0,0 mm 0,0 km/h (0 Bft) N 0 0 min 0 UV-I 0 W/m 0,0 km/h (0 Bft)
03.04.2007 01:50 6,5 C 70 % 1019,9 hPa 0,0 mm 0,0 km/h (0 Bft) N 0 0 min 0 UV-I 0 W/m 0,0 km/h (0 Bft)
03.04.2007 02:00 6,4 C 71 % 1019,8 hPa 0,0 mm 0,0 km/h (0 Bft) N 0 0 min 0 UV-I 0 W/m 0,0 km/h (0 Bft)
03.04.2007 02:10 6,3 C 72 % 1019,7 hPa 0,0 mm 0,0 km/h (0 Bft) N 0 0 min 0 UV-I 0 W/m 0,0 km/h (0 Bft)
03.04.2007 02:20 6,2 C 78 % 1019,7 hPa 0,0 mm 0,0 km/h (0 Bft) N 0 0 min 0 UV-I 0 W/m 0,0 km/h (0 Bft)
03.04.2007 02:30 6,1 C 77 % 1019,6 hPa 0,0 mm 0,0 km/h (0 Bft) N 0 0 min 0 UV-I 0 W/m 0,0 km/h (0 Bft)
03.04.2007 02:40 5,9 C 77 % 1019,6 hPa 0,0 mm 0,0 km/h (0 Bft) N 0 0 min 0 UV-I 0 W/m 0,0 km/h (0 Bft)
03.04.2007 02:50 5,7 C 75 % 1019,5 hPa 0,0 mm 0,0 km/h (0 Bft) N 0 0 min 0 UV-I 0 W/m 0,0 km/h (0 Bft)
03.04.2007 03:00 5,6 C 74 % 1019,5 hPa 0,0 mm 0,0 km/h (0 Bft) N 0 0 min 0 UV-I 0 W/m 0,0 km/h (0 Bft)
03.04.2007 03:10 5,4 C 74 % 1019,5 hPa 0,0 mm 0,0 km/h (0 Bft) N 0 0 min 0 UV-I 0 W/m 0,0 km/h (0 Bft)
03.04.2007 03:20 5,2 C 75 % 1019,5 hPa 0,0 mm 0,0 km/h (0 Bft) N 0 0 min 0 UV-I 0 W/m 0,0 km/h (0 Bft)
03.04.2007 03:30 5,1 C 76 % 1019,4 hPa 0,0 mm 0,0 km/h (0 Bft) N 0 0 min 0 UV-I 0 W/m 0,0 km/h (0 Bft)
03.04.2007 03:40 5,5 C 74 % 1019,2 hPa 0,0 mm 0,0 km/h (0 Bft) NW 315 0 min 0 UV-I 0 W/m 1,6 km/h (1 Bft)
03.04.2007 03:50 6,1 C 70 % 1019,2 hPa 0,0 mm 0,0 km/h (0 Bft) N 0 0 min 0 UV-I 0 W/m 0,0 km/h (0 Bft)
03.04.2007 04:00 6,3 C 67 % 1019,2 hPa 0,0 mm 0,0 km/h (0 Bft) NW 315 0 min 0 UV-I 0 W/m 1,6 km/h (1 Bft)
03.04.2007 04:10 6,3 C 67 % 1019,1 hPa 0,0 mm 0,0 km/h (0 Bft) NW 315 0 min 0 UV-I 0 W/m 3,2 km/h (1 Bft)
03.04.2007 04:20 6,3 C 68 % 1018,9 hPa 0,0 mm 0,0 km/h (0 Bft) NW 315 0 min 0 UV-I 0 W/m 1,6 km/h (1 Bft)
03.04.2007 04:30 6,2 C 66 % 1018,9 hPa 0,0 mm 0,0 km/h (0 Bft) N 360 0 min 0 UV-I 0 W/m 3,2 km/h (1 Bft)
03.04.2007 04:40 6,2 C 65 % 1019,0 hPa 0,0 mm 0,0 km/h (0 Bft) N 360 0 min 0 UV-I 0 W/m 1,6 km/h (1 Bft)
03.04.2007 04:50 6,3 C 66 % 1019,0 hPa 0,0 mm 0,0 km/h (0 Bft) N-NW 337 0 min 0 UV-I 0 W/m 3,2 km/h (1 Bft)
03.04.2007 05:00 6,2 C 66 % 1019,1 hPa 0,0 mm 0,0 km/h (0 Bft) W 270 0 min 0 UV-I 0 W/m 3,2 km/h (1 Bft)
03.04.2007 05:10 6,0 C 66 % 1019,1 hPa 0,0 mm 1,6 km/h (1 Bft) W-NW 292 0 min 0 UV-I 0 W/m 11,3 km/h (2 Bft)
03.04.2007 05:20 5,9 C 66 % 1018,8 hPa 0,0 mm 1,6 km/h (1 Bft) W-NW 292 0 min 0 UV-I 0 W/m 4,8 km/h (1 Bft)
03.04.2007 05:30 5,7 C 67 % 1018,8 hPa 0,0 mm 0,0 km/h (0 Bft) W-NW 292 0 min 0 UV-I 0 W/m 1,6 km/h (1 Bft)
03.04.2007 05:40 5,4 C 67 % 1019,0 hPa 0,0 mm 0,0 km/h (0 Bft) W-NW 292 0 min 0 UV-I 0 W/m 3,2 km/h (1 Bft)
03.04.2007 05:50 5,1 C 70 % 1018,9 hPa 0,0 mm 0,0 km/h (0 Bft) W 270 0 min 0 UV-I 0 W/m 3,2 km/h (1 Bft)
03.04.2007 06:00 4,9 C 72 % 1019,1 hPa 0,0 mm 0,0 km/h (0 Bft) W-SW 247 0 min 0 UV-I 0 W/m 3,2 km/h (1 Bft)
03.04.2007 06:10 4,8 C 74 % 1019,2 hPa 0,0 mm 1,6 km/h (1 Bft) W-SW 247 0 min 0 UV-I 0 W/m 6,4 km/h (2 Bft)
03.04.2007 06:20 4,6 C 78 % 1019,3 hPa 0,0 mm 1,6 km/h (1 Bft) W-NW 292 0 min 0 UV-I 0 W/m 6,4 km/h (2 Bft)
03.04.2007 06:30 4,2 C 80 % 1019,1 hPa 0,0 mm 1,6 km/h (1 Bft) W 270 0 min 0 UV-I 0 W/m 4,8 km/h (1 Bft)
03.04.2007 06:40 3,9 C 81 % 1019,3 hPa 0,0 mm 1,6 km/h (1 Bft) S-SO 157 0 min 0 UV-I 0 W/m 4,8 km/h (1 Bft)
03.04.2007 06:50 3,8 C 83 % 1019,4 hPa 0,0 mm 1,6 km/h (1 Bft) W 270 0 min 0 UV-I 0 W/m 6,4 km/h (2 Bft)
03.04.2007 07:00 3,9 C 83 % 1019,2 hPa 0,0 mm 0,0 km/h (0 Bft) SW 225 0 min 0 UV-I 0 W/m 4,8 km/h (1 Bft)
03.04.2007 07:10 4,1 C 83 % 1019,1 hPa 0,0 mm 0,0 km/h (0 Bft) O 90 0 min 0 UV-I 5 W/m 3,2 km/h (1 Bft)
03.04.2007 07:20 4,2 C 82 % 1019,2 hPa 0,0 mm 0,0 km/h (0 Bft) O 90 0 min 0 UV-I 9 W/m 3,2 km/h (1 Bft)
03.04.2007 07:30 4,3 C 82 % 1019,2 hPa 0,0 mm 1,6 km/h (1 Bft) W 270 0 min 0 UV-I 11 W/m 4,8 km/h (1 Bft)
03.04.2007 07:40 4,4 C 81 % 1019,0 hPa 0,0 mm 1,6 km/h (1 Bft) W-SW 247 0 min 0 UV-I 21 W/m 4,8 km/h (1 Bft)
03.04.2007 07:50 4,4 C 82 % 1019,1 hPa 0,0 mm 1,6 km/h (1 Bft) W-SW 247 0 min 0 UV-I 21 W/m 4,8 km/h (1 Bft)
03.04.2007 08:00 4,6 C 82 % 1019,1 hPa 0,0 mm 1,6 km/h (1 Bft) W-SW 247 0 min 0 UV-I 19 W/m 4,8 km/h (1 Bft)
03.04.2007 08:10 4,7 C 82 % 1019,2 hPa 0,0 mm 1,6 km/h (1 Bft) W-SW 247 0 min 0 UV-I 19 W/m 4,8 km/h (1 Bft)
03.04.2007 08:20 4,7 C 81 % 1019,3 hPa 0,0 mm 1,6 km/h (1 Bft) W 270 0 min 0 UV-I 23 W/m 6,4 km/h (2 Bft)
03.04.2007 08:30 4,7 C 81 % 1019,3 hPa 0,0 mm 1,6 km/h (1 Bft) W-SW 247 0 min 0 UV-I 23 W/m 4,8 km/h (1 Bft)
03.04.2007 08:40 4,7 C 81 % 1019,3 hPa 0,0 mm 1,6 km/h (1 Bft) W 270 0 min 0 UV-I 23 W/m 6,4 km/h (2 Bft)
03.04.2007 08:50 4,7 C 80 % 1019,2 hPa 0,0 mm 1,6 km/h (1 Bft) W-SW 247 0 min 0 UV-I 28 W/m 4,8 km/h (1 Bft)
03.04.2007 09:00 4,8 C 79 % 1019,1 hPa 0,0 mm 1,6 km/h (1 Bft) W 270 0 min 0 UV-I 26 W/m 8,0 km/h (2 Bft)
03.04.2007 09:10 4,8 C 79 % 1019,2 hPa 0,0 mm 1,6 km/h (1 Bft) W 270 0 min 0 UV-I 42 W/m 8,0 km/h (2 Bft)
03.04.2007 09:20 4,8 C 77 % 1019,0 hPa 0,0 mm 3,2 km/h (1 Bft) W 270 0 min 0 UV-I 69 W/m 8,0 km/h (2 Bft)
03.04.2007 09:30 4,9 C 77 % 1018,8 hPa 0,0 mm 1,6 km/h (1 Bft) W 270 0 min 0 UV-I 128 W/m 6,4 km/h (2 Bft)
03.04.2007 09:40 5,1 C 74 % 1018,8 hPa 0,0 mm 1,6 km/h (1 Bft) W 270 0 min 1 UV-I 169 W/m 6,4 km/h (2 Bft)
03.04.2007 09:50 5,2 C 75 % 1018,7 hPa 0,0 mm 1,6 km/h (1 Bft) W-SW 247 0 min 1 UV-I 160 W/m 6,4 km/h (2 Bft)
03.04.2007 10:00 5,3 C 72 % 1018,4 hPa 0,0 mm 1,6 km/h (1 Bft) W-SW 247 10 min 1 UV-I 545 W/m 4,8 km/h (1 Bft)
03.04.2007 10:10 5,8 C 70 % 1018,2 hPa 0,0 mm 3,2 km/h (1 Bft) W-SW 247 10 min 1 UV-I 436 W/m 6,4 km/h (2 Bft)
03.04.2007 10:20 6,2 C 70 % 1018,3 hPa 0,0 mm 3,2 km/h (1 Bft) W-SW 247 10 min 1 UV-I 436 W/m 8,0 km/h (2 Bft)
03.04.2007 10:30 6,2 C 69 % 1018,1 hPa 0,0 mm 1,6 km/h (1 Bft) SW 225 10 min 1 UV-I 345 W/m 8,0 km/h (2 Bft)
03.04.2007 10:40 6,4 C 69 % 1018,0 hPa 0,0 mm 3,2 km/h (1 Bft) SW 225 10 min 1 UV-I 371 W/m 8,0 km/h (2 Bft)
03.04.2007 10:50 6,5 C 69 % 1017,9 hPa 0,0 mm 3,2 km/h (1 Bft) W-SW 247 0 min 1 UV-I 276 W/m 9,7 km/h (2 Bft)
03.04.2007 11:00 6,3 C 71 % 1017,9 hPa 0,0 mm 3,2 km/h (1 Bft) W-SW 247 0 min 1 UV-I 186 W/m 9,7 km/h (2 Bft)
03.04.2007 11:10 6,4 C 69 % 1017,8 hPa 0,0 mm 3,2 km/h (1 Bft) W-SW 247 0 min 1 UV-I 274 W/m 6,4 km/h (2 Bft)
03.04.2007 11:20 6,6 C 70 % 1017,7 hPa 0,0 mm 3,2 km/h (1 Bft) W-SW 247 0 min 1 UV-I 262 W/m 8,0 km/h (2 Bft)
03.04.2007 11:30 6,5 C 71 % 1017,8 hPa 0,0 mm 3,2 km/h (1 Bft) W-SW 247 0 min 1 UV-I 149 W/m 11,3 km/h (2 Bft)
03.04.2007 11:40 6,4 C 72 % 1017,7 hPa 0,0 mm 3,2 km/h (1 Bft) W 270 0 min 1 UV-I 165 W/m 8,0 km/h (2 Bft)
03.04.2007 11:50 6,3 C 73 % 1017,7 hPa 0,0 mm 3,2 km/h (1 Bft) W-SW 247 0 min 1 UV-I 142 W/m 14,5 km/h (3 Bft)
03.04.2007 12:00 6,2 C 75 % 1017,6 hPa 0,0 mm 3,2 km/h (1 Bft) W 270 0 min 1 UV-I 127 W/m 11,3 km/h (2 Bft)
03.04.2007 12:10 6,2 C 77 % 1017,4 hPa 0,0 mm 3,2 km/h (1 Bft) W 270 0 min 1 UV-I 251 W/m 8,0 km/h (2 Bft)
03.04.2007 12:20 6,1 C 81 % 1017,4 hPa 0,0 mm 3,2 km/h (1 Bft) W-SW 247 0 min 1 UV-I 183 W/m 14,5 km/h (3 Bft)
03.04.2007 12:30 5,8 C 84 % 1017,2 hPa 0,0 mm 3,2 km/h (1 Bft) W-SW 247 0 min 1 UV-I 195 W/m 9,7 km/h (2 Bft)
03.04.2007 12:40 5,9 C 84 % 1017,1 hPa 0,0 mm 3,2 km/h (1 Bft) W-SW 247 0 min 1 UV-I 197 W/m 11,3 km/h (2 Bft)
03.04.2007 12:50 5,7 C 87 % 1016,9 hPa 0,0 mm 3,2 km/h (1 Bft) SW 225 0 min 1 UV-I 130 W/m 14,5 km/h (3 Bft)
03.04.2007 13:00 5,7 C 87 % 1016,8 hPa 0,0 mm 3,2 km/h (1 Bft) W 270 0 min 1 UV-I 107 W/m 11,3 km/h (2 Bft)
03.04.2007 13:10 5,8 C 87 % 1016,6 hPa 0,0 mm 3,2 km/h (1 Bft) W 270 0 min 1 UV-I 121 W/m 11,3 km/h (2 Bft)
03.04.2007 13:20 5,8 C 88 % 1016,4 hPa 0,0 mm 3,2 km/h (1 Bft) W 270 0 min 1 UV-I 128 W/m 14,5 km/h (3 Bft)
03.04.2007 13:30 5,9 C 88 % 1016,4 hPa 0,0 mm 3,2 km/h (1 Bft) W-SW 247 0 min 1 UV-I 183 W/m 14,5 km/h (3 Bft)
03.04.2007 13:40 6,1 C 88 % 1016,3 hPa 0,0 mm 3,2 km/h (1 Bft) W-SW 247 0 min 1 UV-I 197 W/m 9,7 km/h (2 Bft)
03.04.2007 13:50 6,2 C 87 % 1016,1 hPa 0,0 mm 3,2 km/h (1 Bft) W-SW 247 0 min 1 UV-I 188 W/m 8,0 km/h (2 Bft)
03.04.2007 14:00 6,3 C 86 % 1016,0 hPa 0,0 mm 3,2 km/h (1 Bft) W 270 0 min 1 UV-I 107 W/m 9,7 km/h (2 Bft)
03.04.2007 14:10 6,4 C 84 % 1016,0 hPa 0,0 mm 3,2 km/h (1 Bft) W-NW 292 0 min 1 UV-I 111 W/m 8,0 km/h (2 Bft)
03.04.2007 14:20 6,6 C 83 % 1016,0 hPa 0,0 mm 1,6 km/h (1 Bft) W 270 0 min 1 UV-I 114 W/m 8,0 km/h (2 Bft)
03.04.2007 14:30 6,8 C 81 % 1015,9 hPa 0,0 mm 1,6 km/h (1 Bft) W-SW 247 0 min 1 UV-I 125 W/m 6,4 km/h (2 Bft)
03.04.2007 14:40 6,9 C 78 % 1015,7 hPa 0,0 mm 3,2 km/h (1 Bft) W 270 0 min 0 UV-I 63 W/m 8,0 km/h (2 Bft)
03.04.2007 14:50 6,9 C 74 % 1015,5 hPa 0,0 mm 3,2 km/h (1 Bft) W 270 0 min 1 UV-I 190 W/m 8,0 km/h (2 Bft)
03.04.2007 15:00 7,2 C 73 % 1015,3 hPa 0,0 mm 3,2 km/h (1 Bft) W-NW 292 0 min 2 UV-I 318 W/m 8,0 km/h (2 Bft)
03.04.2007 15:10 7,6 C 68 % 1015,1 hPa 0,0 mm 3,2 km/h (1 Bft) W 270 0 min 2 UV-I 306 W/m 11,3 km/h (2 Bft)
03.04.2007 15:20 8,3 C 64 % 1014,9 hPa 0,0 mm 4,8 km/h (1 Bft) W-SW 247 10 min 3 UV-I 995 W/m 11,3 km/h (2 Bft)
03.04.2007 15:30 8,7 C 64 % 1014,9 hPa 0,0 mm 3,2 km/h (1 Bft) W 270 10 min 2 UV-I 350 W/m 11,3 km/h (2 Bft)
03.04.2007 15:40 8,3 C 62 % 1014,8 hPa 0,0 mm 4,8 km/h (1 Bft) W-SW 247 0 min 1 UV-I 185 W/m 14,5 km/h (3 Bft)
03.04.2007 15:50 7,9 C 67 % 1014,9 hPa 0,0 mm 4,8 km/h (1 Bft) W 270 0 min 1 UV-I 195 W/m 19,3 km/h (3 Bft)
03.04.2007 16:00 7,7 C 68 % 1015,0 hPa 0,0 mm 4,8 km/h (1 Bft) SW 225 0 min 1 UV-I 192 W/m 17,7 km/h (3 Bft)
03.04.2007 16:10 7,3 C 71 % 1014,9 hPa 0,0 mm 3,2 km/h (1 Bft) W 270 0 min 0 UV-I 100 W/m 9,7 km/h (2 Bft)
03.04.2007 16:20 7,2 C 70 % 1014,9 hPa 0,0 mm 3,2 km/h (1 Bft) W 270 0 min 0 UV-I 83 W/m 9,7 km/h (2 Bft)
03.04.2007 16:30 6,9 C 77 % 1014,8 hPa 0,0 mm 1,6 km/h (1 Bft) W-NW 292 0 min 0 UV-I 70 W/m 9,7 km/h (2 Bft)
03.04.2007 16:40 6,7 C 78 % 1014,7 hPa 0,0 mm 0,0 km/h (0 Bft) NO 45 0 min 0 UV-I 70 W/m 3,2 km/h (1 Bft)
03.04.2007 16:50 6,8 C 78 % 1014,7 hPa 0,0 mm 0,0 km/h (0 Bft) NO 45 0 min 0 UV-I 47 W/m 3,2 km/h (1 Bft)
03.04.2007 17:00 6,8 C 78 % 1014,7 hPa 0,0 mm 0,0 km/h (0 Bft) NO 45 0 min 0 UV-I 26 W/m 4,8 km/h (1 Bft)
03.04.2007 17:10 6,7 C 83 % 1014,7 hPa 0,1 mm 1,6 km/h (1 Bft) O-NO 67 0 min 0 UV-I 19 W/m 4,8 km/h (1 Bft)
03.04.2007 17:20 6,3 C 86 % 1014,8 hPa 0,2 mm 1,6 km/h (1 Bft) O 90 0 min 0 UV-I 56 W/m 4,8 km/h (1 Bft)
03.04.2007 17:30 6,0 C 87 % 1014,7 hPa 0,0 mm 0,0 km/h (0 Bft) O-SO 112 0 min 1 UV-I 167 W/m 3,2 km/h (1 Bft)
03.04.2007 17:40 6,1 C 86 % 1014,7 hPa 0,1 mm 0,0 km/h (0 Bft) O-SO 112 0 min 1 UV-I 183 W/m 3,2 km/h (1 Bft)
03.04.2007 17:50 6,2 C 86 % 1014,6 hPa 0,0 mm 0,0 km/h (0 Bft) O 90 0 min 0 UV-I 88 W/m 3,2 km/h (1 Bft)
03.04.2007 18:00 6,2 C 85 % 1014,7 hPa 0,0 mm 0,0 km/h (0 Bft) O 90 0 min 0 UV-I 72 W/m 3,2 km/h (1 Bft)
03.04.2007 18:10 6,2 C 86 % 1014,7 hPa 0,0 mm 0,0 km/h (0 Bft) O 90 0 min 0 UV-I 26 W/m 1,6 km/h (1 Bft)
03.04.2007 18:20 6,2 C 85 % 1014,5 hPa 0,1 mm 1,6 km/h (1 Bft) NW 315 0 min 0 UV-I 25 W/m 11,3 km/h (2 Bft)
03.04.2007 18:30 6,2 C 86 % 1014,5 hPa 0,0 mm 0,0 km/h (0 Bft) NO 45 0 min 0 UV-I 28 W/m 4,8 km/h (1 Bft)
03.04.2007 18:40 6,2 C 85 % 1014,6 hPa 0,0 mm 0,0 km/h (0 Bft) O-NO 67 0 min 0 UV-I 32 W/m 3,2 km/h (1 Bft)
03.04.2007 18:50 6,3 C 86 % 1014,6 hPa 0,0 mm 0,0 km/h (0 Bft) O-NO 67 0 min 0 UV-I 25 W/m 1,6 km/h (1 Bft)
03.04.2007 19:00 6,3 C 86 % 1014,6 hPa 0,0 mm 0,0 km/h (0 Bft) O-NO 67 0 min 0 UV-I 12 W/m 1,6 km/h (1 Bft)
03.04.2007 19:10 6,3 C 86 % 1014,7 hPa 0,0 mm 0,0 km/h (0 Bft) N 0 0 min 0 UV-I 23 W/m 0,0 km/h (0 Bft)
03.04.2007 19:20 6,3 C 86 % 1014,8 hPa 0,0 mm 0,0 km/h (0 Bft) O-NO 67 0 min 0 UV-I 14 W/m 1,6 km/h (1 Bft)
03.04.2007 19:30 6,3 C 86 % 1015,0 hPa 0,0 mm 0,0 km/h (0 Bft) O-NO 67 0 min 0 UV-I 0 W/m 1,6 km/h (1 Bft)
03.04.2007 19:40 6,3 C 84 % 1014,9 hPa 0,3 mm 1,6 km/h (1 Bft) O-NO 67 0 min 0 UV-I 0 W/m 8,0 km/h (2 Bft)
03.04.2007 19:50 6,1 C 84 % 1014,9 hPa 0,0 mm 1,6 km/h (1 Bft) O-NO 67 0 min 0 UV-I 0 W/m 8,0 km/h (2 Bft)
03.04.2007 20:00 6,0 C 85 % 1015,0 hPa 0,0 mm 1,6 km/h (1 Bft) O 90 0 min 0 UV-I 0 W/m 4,8 km/h (1 Bft)
03.04.2007 20:10 5,9 C 86 % 1015,1 hPa 0,0 mm 1,6 km/h (1 Bft) O-NO 67 0 min 0 UV-I 0 W/m 6,4 km/h (2 Bft)
03.04.2007 20:20 5,9 C 87 % 1015,2 hPa 0,1 mm 1,6 km/h (1 Bft) W-SW 247 0 min 0 UV-I 0 W/m 8,0 km/h (2 Bft)
03.04.2007 20:30 5,8 C 86 % 1015,3 hPa 0,0 mm 3,2 km/h (1 Bft) O-NO 67 0 min 0 UV-I 0 W/m 11,3 km/h (2 Bft)
03.04.2007 20:40 5,7 C 84 % 1015,5 hPa 0,1 mm 3,2 km/h (1 Bft) O-NO 67 0 min 0 UV-I 0 W/m 9,7 km/h (2 Bft)
03.04.2007 20:50 5,5 C 85 % 1015,6 hPa 0,0 mm 3,2 km/h (1 Bft) O-NO 67 0 min 0 UV-I 0 W/m 14,5 km/h (3 Bft)
03.04.2007 21:00 5,4 C 86 % 1015,6 hPa 0,0 mm 1,6 km/h (1 Bft) O-NO 67 0 min 0 UV-I 0 W/m 6,4 km/h (2 Bft)
03.04.2007 21:10 5,4 C 86 % 1015,8 hPa 0,0 mm 1,6 km/h (1 Bft) O 90 0 min 0 UV-I 0 W/m 6,4 km/h (2 Bft)
03.04.2007 21:20 5,5 C 85 % 1015,9 hPa 0,0 mm 1,6 km/h (1 Bft) O-NO 67 0 min 0 UV-I 0 W/m 11,3 km/h (2 Bft)
03.04.2007 21:30 5,6 C 84 % 1016,0 hPa 0,0 mm 3,2 km/h (1 Bft) O-NO 67 0 min 0 UV-I 0 W/m 9,7 km/h (2 Bft)
03.04.2007 21:40 5,7 C 84 % 1016,0 hPa 0,0 mm 1,6 km/h (1 Bft) NO 45 0 min 0 UV-I 0 W/m 8,0 km/h (2 Bft)
03.04.2007 21:50 5,6 C 85 % 1016,1 hPa 0,0 mm 1,6 km/h (1 Bft) S-SW 202 0 min 0 UV-I 0 W/m 9,7 km/h (2 Bft)
03.04.2007 22:00 5,7 C 84 % 1016,2 hPa 0,0 mm 1,6 km/h (1 Bft) O 90 0 min 0 UV-I 0 W/m 6,4 km/h (2 Bft)
03.04.2007 22:10 5,7 C 84 % 1016,3 hPa 0,0 mm 3,2 km/h (1 Bft) O-NO 67 0 min 0 UV-I 0 W/m 11,3 km/h (2 Bft)
03.04.2007 22:20 5,7 C 83 % 1016,4 hPa 0,0 mm 3,2 km/h (1 Bft) NO 45 0 min 0 UV-I 0 W/m 11,3 km/h (2 Bft)
03.04.2007 22:30 5,7 C 83 % 1016,8 hPa 0,0 mm 4,8 km/h (1 Bft) O 90 0 min 0 UV-I 0 W/m 14,5 km/h (3 Bft)
03.04.2007 22:40 5,6 C 84 % 1016,7 hPa 0,1 mm 4,8 km/h (1 Bft) O-NO 67 0 min 0 UV-I 0 W/m 14,5 km/h (3 Bft)
03.04.2007 22:50 5,2 C 86 % 1016,6 hPa 0,0 mm 1,6 km/h (1 Bft) O 90 0 min 0 UV-I 0 W/m 6,4 km/h (2 Bft)
03.04.2007 23:00 5,1 C 87 % 1016,8 hPa 0,0 mm 1,6 km/h (1 Bft) O 90 0 min 0 UV-I 0 W/m 6,4 km/h (2 Bft)
03.04.2007 23:10 5,2 C 86 % 1016,9 hPa 0,0 mm 1,6 km/h (1 Bft) O-NO 67 0 min 0 UV-I 0 W/m 6,4 km/h (2 Bft)
03.04.2007 23:20 5,3 C 85 % 1017,0 hPa 0,0 mm 1,6 km/h (1 Bft) W-SW 247 0 min 0 UV-I 0 W/m 8,0 km/h (2 Bft)
03.04.2007 23:30 5,3 C 85 % 1017,0 hPa 0,0 mm 0,0 km/h (0 Bft) W-NW 292 0 min 0 UV-I 0 W/m 4,8 km/h (1 Bft)
03.04.2007 23:40 5,3 C 85 % 1017,2 hPa 0,0 mm 0,0 km/h (0 Bft) W-SW 247 0 min 0 UV-I 0 W/m 3,2 km/h (1 Bft)
03.04.2007 23:50 5,3 C 84 % 1017,2 hPa 0,0 mm 0,0 km/h (0 Bft) N-NO 22 0 min 0 UV-I 0 W/m 4,8 km/h (1 Bft)
_ Min-Zeit 06:40 00:00 18:20 - 00:00 - - - - - 00:00
Minimum _ 3,8 C 57 % 1014,5 hPa - 0,0 km/h (0 Bft) - - - - - 0,0 km/h (0 Bft)
_ Max-Zeit 15:30 13:20 00:00 19:40 15:20 - - 10:00 15:20 15:20 15:50
Maximum _ 8,8 C 88 % 1020,9 hPa 0,3 mm 4,8 km/h
W-SW (1 Bft)
- - 10 min 3 UV-I 995 W/m 19,3 km/h
N (3 Bft)
Durchschnitt _ 6,0 C 77 % 1017,4 hPa #1,0 mm 1,5 km/h (1 Bft) W-SW - #1:10 h 1 UV-I 146 W/m 6,0 km/h (2 Bft)